Overview Statistics Trail Chart Weather Telemetry Raw packets
 

This is the latest recevied weather packets stored in our database for station/object KG5APU. If no packets are shown the sender has not sent any weather packets the latest 10 day(s).

<< 9 10 11 12 13 14 15 >>
Time Temp. Humidity Pressure Rain* Wind** Luminosity Snow
1788482515 30° C 68% 1012.8 hPa 0 mm - 7 W/m² -
1788481912 30.56° C 66% 1012.8 hPa 0 mm - 13 W/m² -
1788481309 30.56° C 64% 1012.7 hPa 0 mm - 23 W/m² -
1788480709 31.11° C 62% 1012.6 hPa 0 mm - 38 W/m² -
1788480106 31.11° C 60% 1012.7 hPa 0 mm - 54 W/m² -
1788479502 31.67° C 60% 1012.5 hPa 0 mm - 71 W/m² -
1788478898 31.67° C 62% 1012.3 hPa 0 mm - 86 W/m² -
1788478296 31.67° C 61% 1012.1 hPa 0 mm - 113 W/m² -
1788477692 32.22° C 61% 1012.2 hPa 0 mm - 139 W/m² -
1788477092 32.22° C 61% 1012.3 hPa 0 mm - 164 W/m² -
1788476492 32.78° C 61% 1012 hPa 0 mm - 195 W/m² -
1788475891 32.78° C 60% 1012.1 hPa 0 mm - 223 W/m² -
1788475289 32.78° C 61% 1012.2 hPa 0 mm - 251 W/m² -
1788474687 32.78° C 61% 1012.4 hPa 0 mm - 287 W/m² -
1788474087 32.78° C 61% 1012.1 hPa 0 mm - 315 W/m² -
1788473487 33.33° C 60% 1012.2 hPa 0 mm - 345 W/m² -
1788472886 32.78° C 60% 1012.3 hPa 0 mm - 382 W/m² -
1788472286 33.33° C 61% 1012.4 hPa 0 mm - 432 W/m² -
1788471680 33.33° C 59% 1012.6 hPa 0 mm - 438 W/m² -
1788471077 32.78° C 60% 1012.5 hPa 0 mm - 482 W/m² -
1788470474 32.78° C 61% 1012.9 hPa 0 mm - 510 W/m² -
1788469871 32.78° C 61% 1013 hPa 0 mm - 536 W/m² -
1788469268 32.78° C 62% 1012.9 hPa 0 mm - 563 W/m² -
1788468667 32.22° C 62% 1012.9 hPa 0 mm - 585 W/m² -
1788468064 32.78° C 61% 1013 hPa 0 mm - 606 W/m² -

* Rain latest hour (hover to see other rain measurements)
** Current wind speed in m/s (hover to see current wind gust speed)